{"data":{"norad_id":50186,"intl_designator":"2021-125AG","name":"STARLINK-3274","alt_names":[],"object_type":"PAYLOAD","status":"ACTIVE","operator":null,"country":"US","launch_date":"2021-12-18","launch_site_code":"AFWTR","launch_vehicle":null,"mission":null,"orbit_class":"UNKNOWN","rcs_meters":null,"size_class":null,"mass_kg":null,"dimensions":null,"purposes":["comms"],"wikipedia_slug":null,"has_3d_model":false,"image_url":null,"decayed_at":null,"tle_current":{"epoch":"2026-05-25T01:29:07.452384Z","epoch_age_seconds":76605,"freshness":"FRESH","line1":"1 50186U 21125AG  26145.06189181  .00000448  00000+0  46213-4 0  9998","line2":"2 50186  53.2148 276.2700 0000829 116.5918 243.5160 15.08834990247987","mean_motion":15.0883499,"eccentricity":8.29e-5,"inclination_deg":53.2148,"raan_deg":276.27,"arg_perigee_deg":116.5918,"mean_anomaly_deg":243.516,"bstar":4.6213e-5,"rev_number":24798,"period_min":95.437871572689,"perigee_km":539.18520901845,"apogee_km":540.33219612594,"semimajor_km":6917.8957025722,"source":"CELESTRAK","updated_at":"2026-05-25T13:38:16.869742Z"}}}